Regional Weather Roundup
Issued by NWS

Home | Current Version | Previous Version | Graphics & Text | Print | Product List | Glossary On
Versions: 1 2 3 4 5 6 7 8 9 10 11 12 13 14 15 16 17 18 19 20 21 22 23 24 25 26 27 28
000
ASUS45 KPSR 082210
RWRAZ

ARIZONA HOURLY REGIONAL WEATHER ROUNDUP
NATIONAL WEATHER SERVICE PHOENIX AZ
300 PM MST THU DEC 08 2016

NOTE: FAIR INDICATES FEW OR NO CLOUDS BELOW 12,000 FEET WITH NO
SIGNIFICANT WEATHER AND/OR OBSTRUCTIONS TO VISIBILITY.

AZZ001>003-036-082300-
NORTHWEST ARIZONA

CITY           SKY/WX    TMP DP  RH WIND       PRES   REMARKS
BULLHEAD CITY  SUNNY     61   9  12 N9        30.21F
KINGMAN        SUNNY     56  19  23 SW13      30.20F
$$

AZZ004>008-015-016-018-082300-
NORTH CENTRAL ARIZONA

CITY           SKY/WX    TMP DP  RH WIND       PRES   REMARKS
GRAND CANYON   SUNNY     46  22  38 SW9       30.24S
WILLIAMS       SUNNY     50  18  27 S5G12     30.23S
PRESCOTT       SUNNY     54  31  41 SE7       30.21F
FLAGSTAFF      SUNNY     44  23  43 SW9       30.24S
PAYSON         SUNNY     52  32  46 VRB5      30.27S
PAGE           MOSUNNY   42   3  19 E5        30.24F
$$

AZZ009>014-017-082300-
NORTHEAST ARIZONA

CITY           SKY/WX    TMP DP  RH WIND       PRES   REMARKS
WINSLOW        SUNNY     48  18  30 CALM      30.23F
SAINT JOHNS    SUNNY     52  27  38 VRB3      30.22S
WINDOW ROCK    SUNNY     49  21  33 SW10      30.25R
SHOW LOW       SUNNY     48  27  43 SW13      30.25R
$$

AZZ023-082300-
GREATER PHOENIX AREA

CITY           SKY/WX    TMP DP  RH WIND       PRES   REMARKS
PHOENIX        SUNNY     67  41  38 VRB6      30.16F
BUCKEYE        SUNNY     64  39  39 SW3       30.20F
GLENDALE       MOSUNNY   66  39  37 CALM      30.19S
LUKE AFB       SUNNY     66  39  38 CALM      30.16F
DEER VALLEY    SUNNY     66  40  38 CALM      30.17S
SCOTTSDALE     SUNNY     66  39  37 CALM      30.18F
MESA-FALCON    SUNNY    N/A N/A N/A SW6       30.14F
MESA-GATEWAY   SUNNY     64  39  39 NW5       30.18F
CHANDLER       SUNNY     68  39  34 W7        30.17F
$$

AZZ027-028-082300-
SOUTHWEST MARICOPA COUNTY AND PINAL COUNTY

CITY           SKY/WX    TMP DP  RH WIND       PRES   REMARKS
CASA GRANDE    NOT AVBL
GILA BEND      SUNNY     66  28  24 N6          N/A
$$

AZZ503-504-507>509-082300-
SOUTHEAST ARIZONA

CITY           SKY/WX    TMP DP  RH WIND       PRES   REMARKS
TUCSON         SUNNY     68  35  29 NW7       30.18F
DAVIS-MONTHAN  SUNNY     66  28  23 VRB7      30.17S
RYAN FIELD     SUNNY     66  36  32 W8        30.19S
NOGALES        SUNNY     66  17  15 VRB5      30.18S
SIERRA VISTA   SUNNY     63  28  26 NE3       30.22R
DOUGLAS        SUNNY     64  32  30 VRB5      30.20R
SAFFORD        SUNNY     63  32  31 VRB6      30.20F
$$

AZZ020-021-025-026-031-082300-
SOUTHWEST ARIZONA

CITY           SKY/WX    TMP DP  RH WIND       PRES   REMARKS
YUMA           MOSUNNY   69  16  13 N6        30.18F
$$

CAZ031-033-041-043-047-048-061-082300-
SOUTHERN CALIFORNIA

CITY           SKY/WX    TMP DP  RH WIND       PRES   REMARKS
DOWNTOWN L.A.  SUNNY     65  44  46 CALM      30.20F
L.A. AIRPORT   PTSUNNY   62  46  55 W10       30.21F
SAN DIEGO      MOSUNNY   64  50  60 NW12      30.23S
BURBANK        SUNNY     66  39  37 CALM      30.19F
ONTARIO        MOSUNNY   65  40  39 W6        30.20F
RIVERSIDE      SUNNY     66  45  46 VRB7      30.20F
PALM SPRINGS   SUNNY     66  22  18 VRB3      30.20S
EL CENTRO NAS  MOSUNNY   67  18  15 SE5       30.20F
IMPERIAL       MOSUNNY   68  24  19 S5        30.18F
BLYTHE         SUNNY     63  10  12 CALM      30.20F
NEEDLES        SUNNY     62  10  13 CALM      30.22F
$$

NVZ020-UTZ003-082300-
SOUTHERN NEVADA-UTAH

CITY           SKY/WX    TMP DP  RH WIND       PRES   REMARKS
LAS VEGAS      MOSUNNY   53   5  14 NW5       30.21F
SALT LAKE CITY FLURRIES  27  20  75 N7        30.16F WCI  19
$$

NMZ009-TXZ055-082300-
NEW MEXICO-WEST TEXAS

CITY           SKY/WX    TMP DP  RH WIND       PRES   REMARKS
ALBUQUERQUE    SUNNY     37  15  40 CALM      30.33S
EL PASO        PTSUNNY   41  25  53 SE13      30.36S
$$


........................KEY........................
SKY/WX - SKY CONDITION/WEATHER
TMP    - TEMPERATURE IN FAHRENHEIT
DP     - DEW POINT IN FAHRENHEIT
RH     - RELATIVE HUMIDITY IN PERCENT
WIND   - DIRECTION AND SPEED IN MILES PER HOUR (MPH)
VRB    - VARIABLE WIND DIRECTION
PRES   - MEAN SEA LEVEL PRESSURE IN INCHES OF MERCURY
         F - FALLING PRESSURE   R - RISING PRESSURE
         S - STEADY PRESSURE
VSB    - VISIBILITY IN MILES
HX     - HEAT INDEX IN FAHRENHEIT
WCI    - WIND CHILL INDEX IN FAHRENHEIT
TC     - TEMPERATURE IN CELSIUS WHICH IS ALSO KNOWN AS
         TEMPERATURE IN CENTIGRADE
AFB    - AIR FORCE BASE
         LUKE AFB IS LUKE AIR FORCE BASE
         DAVIS-MONTHAN IS DAVIS-MONTHAN AIR FORCE BASE
NAS    - NAVAL AIR STATION
         EL CENTRO NAS IS EL CENTRO NAVAL AIR STATION
N/A    - NOT AVAILABLE





USA.gov is the U.S. government's official web portal to all federal, state and local government web resources and services.